Regional Weather Roundup
Issued by NWS

Home | Current Version | Previous Version | Graphics & Text | Print | Product List | Glossary On
Versions: 1 2 3 4 5 6 7 8 9 10 11 12 13 14 15 16 17 18 19 20 21 22 23 24 25 26 27 28 29 30 31 32 33 34 35 36 37 38 39 40 41 42 43 44 45 46 47 48 49 50
000
ASUS43 KMPX 211410
RWRMN
WEATHER ROUNDUP FOR MINNESOTA
NATIONAL WEATHER SERVICE TWIN CITIES/CHANHASSEN MN
900 AM CDT SAT OCT 21 2017


NOTE: "FAIR" INDICATES FEW OR NO CLOUDS BELOW 12,000 FEET WITH NO
SIGNIFICANT WEATHER AND/OR OBSTRUCTIONS TO VISIBILITY. N/A MEANS
CURRENT SKY AND/OR WEATHER CONDITIONS ARE NOT AVAILABLE.

MNZ060>063-068>070-211500-
   Twin Cities Metro

CITY           SKY/WX    TMP DP  RH WIND       PRES   REMARKS
TWIN CITIES    LGT RAIN  61  59  93 S17       29.69S
ST PAUL        CLOUDY    60  58  92 SE13G21   29.70F
CRYSTAL        LGT RAIN  59  55  87 S15       29.67R
BLAINE         LGT RAIN  61  61 100 S18G26    29.67S
LAKEVILLE      RAIN      57  57 100 S17G25    29.67F
EDEN PRAIRIE   LGT RAIN  60  57  89 S12G22    29.68R
SOUTH ST PAUL  LGT RAIN  59  59 100 S12G18    29.70S
LAKE ELMO      CLOUDY    59  57  94 SE15G21   29.72S
$$
MNZ001>005-007-008-013>017-022>024-027-028-211500-
   Northwest Minnesota

CITY           SKY/WX    TMP DP  RH WIND       PRES   REMARKS
BEMIDJI        CLOUDY    63  56  80 SE16      29.51R
HALLOCK        MOCLDY    64  57  77 S20G29    29.34R
ROSEAU         PTCLDY    63  57  82 S16       29.40S
WARROAD        PTCLDY    63  57  82 S16G23    29.43S
THIEF RVR FALL CLOUDY    63  57  82 S20G25    29.44
CROOKSTON      CLOUDY    64  57  77 S18G24    29.41R
FOSSTON        PTCLDY    63  55  77 S18       29.46R
DETROIT LAKES  PTSUNNY   63  55  77 S14       29.50R
MOORHEAD       MOCLDY    63  57  82 S22G31    29.44R
PARK RAPIDS    CLOUDY    63  57  81 S17G29    29.53R
MAHNOMEN       CLOUDY    62  57  82 S13G18    29.47R
$$
MNZ006-009>011-018-025>026-211500-
   North Central Minnesota

CITY           SKY/WX    TMP DP  RH WIND       PRES   REMARKS
BAUDETTE       SUNNY     63  56  78 S15G23    29.46S
FLAG ISLAND    CLEAR     57  52  82 SE20      29.42S
INTL FALLS     PTSUNNY   63  53  70 S13G21    29.55S
WASKISH        PTSUNNY   63  57  82 SE10G17   29.50R
BIG FORK       CLOUDY    63  54  72 S13G24    29.58R
LONGVILLE      CLOUDY    63  55  77 S16       29.57S
GRAND RAPIDS   CLOUDY    61  54  77 S13G22    29.62R
CRANE LAKE     CLOUDY    61  54  77 S6G16     29.64R
ORR            CLOUDY    61  52  72 S13G21    29.59R
COOK           CLOUDY    61  54  77 SE13G18   29.63S
WALKER         CLOUDY    61  55  78 S13       29.54S
$$
MNZ012-019>021-037-211500-
   Northeast Minnesota

CITY           SKY/WX    TMP DP  RH WIND       PRES   REMARKS
DULUTH         CLOUDY    61  52  72 S17G23    29.69R
ELY            CLOUDY    61  50  67 S12       29.68R
HIBBING        CLOUDY    60  52  74 S12G20    29.64R
EVELETH        CLOUDY    60  49  67 S8        29.67R
DULUTH HARBOR  PTSUNNY   64  54  68 S21G29    29.69R
TWO HARBORS    CLOUDY    63  54  72 SE3       29.69S
SILVER BAY     CLOUDY    61  52  72 S7        29.70S
GRAND MARAIS     N/A     58  50  75 NE3       29.75R
G MARAIS ARPRT CLOUDY    55  45  67 S6        29.77R
$$
MNZ029>031-032-039>041-046>048-054>057-064-211500-
   West Central Minnesota

CITY           SKY/WX    TMP DP  RH WIND       PRES   REMARKS
FERGUS FALLS   CLOUDY    63  55  77 S18       29.49S
WHEATON        PTSUNNY   63  55  77 SE15      29.49R
MORRIS         MOSUNNY   63  57  82 S14       29.50S
ALEXANDRIA     CLOUDY    62  57  83 S17       29.54F
ELBOW LAKE     CLOUDY    61  57  87 SE18      29.50S
WADENA         CLOUDY    61  55  82 S14G22    29.53S
GLENWOOD       MOSUNNY   63  57  82 S15G21    29.55F
APPLETON       CLOUDY    66  57  72 S12G23    29.50S
BENSON         CLOUDY    64  57  77 S12G20    29.53F
ORTONVILLE     CLOUDY    63  57  82 NE8       29.49R
MADISON        PTSUNNY   66  61  82 S12       29.50S
WILLMAR        FAIR      64  57  77 S14G22    29.57S
$$
MNZ033>034-036-042>043-049>051-058-059-211500-
   Central Minnesota

CITY           SKY/WX    TMP DP  RH WIND       PRES   REMARKS
ST CLOUD       LGT RAIN  60  59  96 S14       29.62R
SAUK CENTRE    CLOUDY    61  55  81 S16       29.57S
PAYNESVILLE    CLOUDY    62  57  82 S13       29.59S
AITKIN         CLOUDY    59  52  77 S15G22    29.60S
PINE RIVER     CLOUDY    61  52  72 S14       29.61S
BRAINERD       CLOUDY    61  54  77 S14G23    29.60S
STAPLES        CLOUDY    61  54  77 S14       29.56S
LONG PRAIRIE   CLOUDY    61  54  77 SE12      29.58R
LITTLE FALLS   RAIN      61  50  67 SE13      29.60R
LITCHFIELD     RAIN      63  61  94 S10G18    29.61R
BUFFALO        LGT RAIN  59  56  91 SE10G18   29.66R
MAPLE LAKE     LGT RAIN  61  59  95 SE10G18   29.65R
HUTCHINSON     LGT RAIN  61  60  96 SE8G17    29.63R
$$
MNZ037-044-045-052-053-211500-
   East Central Minnesota

CITY           SKY/WX    TMP DP  RH WIND       PRES   REMARKS
PRINCETON      RAIN      61  57  88 SE12      29.66R
MORA           HVY RAIN  55  52  88 S13G21    29.69R
CAMBRIDGE      RAIN      61  57  88 SE7G18    29.67S
RUSH CITY      RAIN      58  56  92 SE9       29.69R
MOOSE LAKE     CLOUDY    61  52  72 S7        29.66S
HINCKLEY       LGT RAIN  59  55  88 S6        29.69R
CLOQUET        CLOUDY    63  50  63 S10       29.68S
MCGREGOR       CLOUDY    63  54  72 S12G24    29.64R
$$
MNZ071>073-080-081-089-090-097-098-211500-
   Southwest Minnesota

CITY           SKY/WX    TMP DP  RH WIND       PRES   REMARKS
MONTEVIDEO     CLOUDY    64  59  82 S12       29.52S
GRANITE FALLS  CLOUDY    67  60  78 SE17G28   29.55R
CANBY          CLOUDY    66  59  79 S12       29.51S
REDWOOD FALLS  CLOUDY    65  58  78 S25G32    29.57R
OLIVIA         CLOUDY    64  57  77 S15G26    29.56S
PIPESTONE      CLOUDY    63  59  88 S18G26    29.54R
WORTHINGTON    CLOUDY    62  60  93 S13G23    29.61R
JACKSON        LGT RAIN  61  59  94 S17G26    29.65S
TRACY          CLOUDY    64  61  88 S21G28    29.55F
SLAYTON        CLOUDY    63  61  91 S18G26    29.58R
$$
MNZ065>067-074>077-082>085-091>093-211500-
   South Central Minnesota

CITY           SKY/WX    TMP DP  RH WIND       PRES   REMARKS
MANKATO        LGT RAIN  61  59  94 SE17G29   29.66F
NEW ULM          N/A     61  57  88 S22       29.62S
ST JAMES       CLOUDY    61  59  94 SE20G26   29.63S
FAIRMONT       CLOUDY    61  59  93 S23       29.65S
GLENCOE        CLOUDY    62  62 100 S9G18     29.63S
FARIBAULT      RAIN      59  57  94 SE16G25   29.73R
OWATONNA       RAIN      59  57  94 S12       29.75R
WASECA         TSTM      59  55  88 SE9       29.72F
$$
MNZ078>079-086>088-094>096-211500-
   Southeast Minnesota

CITY           SKY/WX    TMP DP  RH WIND       PRES   REMARKS
ROCHESTER      CLOUDY    58  56  93 S17G24    29.79F
RED WING       RAIN      61  55  82 S16G28    29.75R
STANTON        CLOUDY    60  57  89 S22G31    29.70S
DODGE CENTER   LGT RAIN  57  55  94 S17G28    29.77S
WINONA         CLOUDY    61  54  77 S6        29.83R
AUSTIN         CLOUDY    59  55  88 S13G21    29.76S
PRESTON        CLOUDY    59  54  82 S14G25    29.83R
$$
ABBREVIATIONS USED IN REMARKS
   TC - TEMPERATURES IN CELSIUS
  WCI - WIND CHILL INDEX
   HX - HEAT INDEX
  VSB - VISIBILITY
$$




USA.gov is the U.S. government's official web portal to all federal, state and local government web resources and services.